Marshfield, WI

8:21 AM CDT on April 22, 2018 (GMT -0500)
Marshfield Municipal

Weather History for KMFI - November, 2010

Change the Weather History Date:

Friday, November 26, 2010

  Actual Average Record
Temperature  
Mean Temperature 18 °F -  
Max Temperature 24 °F 36 °F 60 °F (1914)
Min Temperature 12 °F 21 °F -11 °F (1977)
Degree Days  
Heating Degree Days 47    
Moisture  
Dew Point 8 °F    
Average Humidity 66    
Maximum Humidity 74    
Minimum Humidity 55    
Precipitation  
Precipitation 0.00 in - - ()
Sea Level Pressure  
Sea Level Pressure 29.78 in    
Wind  
Wind Speed 15 mph (West)    
Max Wind Speed 20 mph    
Max Gust Speed 29 mph    
Visibility 10 miles    
Events Snow    
Averages and records for this station are not official NWS values.
T = Trace of Precipitation, MM = Missing Value Source: NWS Daily Summary

Daily Weather History Graph

Daily Weather History Graph

Search for Another Location

Airport or City:

Astronomy

Nov. 26, 2010 Rise Set
Actual Time 7:11 AM CST 4:24 PM CST
Civil Twilight 6:39 AM CST 4:56 PM CST
Nautical Twilight 6:03 AM CST 5:32 PM CST
Astronomical Twilight 5:28 AM CST 6:07 PM CST
Moon 9:37 PM CST (11/26) 11:15 AM CST (11/26)
Length of Visible Light 10h 17m
Length of Day
9h 12m
Waning Gibbous, 73% of the Moon is Illuminated
Nov 26
Waning Gibbous
Nov 28
Last Quarter
Dec 5
New
Dec 13
First Quarter
Dec 21
Full

Hourly Weather History & Observations

Time (CST) Temp. Windchill Dew Point Humidity Pressure Visibility Wind Dir Wind Speed Gust Speed Precip Events Conditions
12:54 AM 14.0 °F -2.0 °F 5.0 °F 67% 29.75 in 10.0 mi West 16.1 mph 27.6 mph N/A   Overcast
1:54 AM 14.0 °F -0.8 °F 6.1 °F 71% 29.75 in 10.0 mi West 13.8 mph 25.3 mph N/A   Overcast
2:54 AM 14.0 °F -2.5 °F 6.1 °F 71% 29.75 in 10.0 mi West 17.3 mph 25.3 mph 0.00 in   Overcast
3:54 AM 14.0 °F -2.0 °F 6.1 °F 71% 29.75 in 9.0 mi West 16.1 mph 24.2 mph 0.00 in Snow Light Snow
4:54 AM 12.9 °F -1.6 °F 6.1 °F 74% 29.76 in 10.0 mi West 12.7 mph 20.7 mph 0.00 in   Overcast
5:54 AM 12.9 °F -2.8 °F 6.1 °F 74% 29.76 in 10.0 mi West 15.0 mph 24.2 mph N/A   Overcast
6:54 AM 12.9 °F -2.2 °F 6.1 °F 74% 29.77 in 10.0 mi West 13.8 mph - 0.00 in   Overcast
7:54 AM 12.9 °F -2.8 °F 5.0 °F 71% 29.77 in 10.0 mi West 15.0 mph - N/A   Mostly Cloudy
8:08 AM 12.2 °F -2.5 °F 5.0 °F 73% 29.69 in 10.0 mi West 12.7 mph - N/A   Partly Cloudy
8:54 AM 14.0 °F -0.8 °F 6.1 °F 71% 29.76 in 10.0 mi West 13.8 mph 20.7 mph N/A   Clear
9:54 AM 16.0 °F 2.3 °F 7.0 °F 68% 29.76 in 10.0 mi West 12.7 mph 21.9 mph N/A   Clear
10:54 AM 19.0 °F 4.0 °F 8.1 °F 62% 29.76 in 10.0 mi West 17.3 mph - N/A   Clear
11:54 AM 21.9 °F 7.8 °F 10.0 °F 60% 29.74 in 10.0 mi West 17.3 mph 23.0 mph N/A   Clear
12:54 PM 23.0 °F 9.2 °F 9.0 °F 55% 29.74 in 10.0 mi West 17.3 mph 23.0 mph N/A   Clear
1:54 PM 24.1 °F 12.0 °F 10.0 °F 55% 29.75 in 10.0 mi West 13.8 mph 24.2 mph N/A   Partly Cloudy
2:54 PM 23.0 °F 9.2 °F 10.0 °F 58% 29.75 in 10.0 mi West 17.3 mph 25.3 mph N/A   Overcast
3:54 PM 23.0 °F 11.1 °F 10.9 °F 60% 29.77 in 10.0 mi West 12.7 mph 20.7 mph N/A   Mostly Cloudy
4:54 PM 21.9 °F 8.2 °F 10.0 °F 60% 29.78 in 10.0 mi West 16.1 mph 25.3 mph N/A   Scattered Clouds
5:54 PM 21.9 °F 7.8 °F 10.9 °F 63% 29.81 in 10.0 mi West 17.3 mph 21.9 mph N/A   Overcast
6:54 PM 21.9 °F 7.8 °F 10.9 °F 63% 29.81 in 10.0 mi West 17.3 mph 25.3 mph N/A   Overcast
7:54 PM 21.9 °F 7.3 °F 10.0 °F 60% 29.83 in 10.0 mi WNW 18.4 mph 26.5 mph N/A   Overcast
8:54 PM 21.0 °F 5.7 °F 10.0 °F 63% 29.83 in 10.0 mi WNW 19.6 mph 28.8 mph N/A   Scattered Clouds
9:54 PM 19.9 °F 5.7 °F 10.0 °F 65% 29.83 in 10.0 mi WNW 16.1 mph 26.5 mph N/A   Clear
10:54 PM 19.9 °F 6.2 °F 10.0 °F 65% 29.85 in 10.0 mi WNW 15.0 mph 23.0 mph N/A   Scattered Clouds
11:03 PM 19.4 °F 5.0 °F 10.4 °F 68% 29.79 in 10.0 mi WNW 16.1 mph 23.0 mph N/A   Mostly Cloudy
11:54 PM 19.0 °F 4.5 °F 10.0 °F 68% 29.87 in 10.0 mi WNW 16.1 mph 25.3 mph N/A   Scattered Clouds